Regional Weather Roundup
Issued by NWS

Home | Current Version | Previous Version | Text Only | Print | Product List | Glossary On
Versions: 1 2 3 4 5 6 7 8 9 10 11 12 13 14 15 16 17 18 19 20 21 22 23 24 25 26
000
ASCA42 TJSJ 242310
RWRPR
PUERTO RICO/U.S. VIRGIN ISLANDS HOURLY WEATHER ROUNDUP
NATIONAL WEATHER SERVICE SAN JUAN PR
700 PM AST TUE APR 24 2018

PRZ001>002-007>008-010-250000-
PUERTO RICO

CITY           SKY/WX    TMP DP  RH WIND       PRES   REMARKS
SAN JUAN LMM   PTCLDY    79  72  78 E16       30.02R
AGUADILLA      CLOUDY    79  68  69 E14       30.03R
CEIBA          PTCLDY    79  72  78 NE9       30.04
$$

VIZ001>002-250000-
U.S. VIRGIN ISLANDS

CITY           SKY/WX    TMP DP  RH WIND       PRES   REMARKS
CHARLOTTE AMA  CLEAR     81  70  69 E7        30.02
$$

HOURLY WEATHER ROUNDUP FOR THE NEWS MEDIA

CITY           SKY/WX    TMP DP  RH WIND       PRES   REMARKS
ORLANDO        SUNNY     79  57  47 MISG      29.89
NEW YORK       CLOUDY    56  42  59 SE17      30.24F
NEWARK         CLOUDY    58  43  57 SE14      30.23F
CHICAGO        FAIR      62  47  57 NE9       29.99R
HARTFORD       FAIR      53  38  56 S7        30.29F
BOSTON         MOCLDY    57  34  41 S18       30.26F
DALLAS         PTSUNNY   83  50  31 SE8       30.00S
PHILADELPHIA   MOCLDY    59  45  59 E12       30.17F
LOS ANGELES    FAIR      61  52  72 W15       30.01F
WASHINGTON DC  LGT RAIN  55  54  96 E6        30.06F FOG



USA.gov is the U.S. government's official web portal to all federal, state and local government web resources and services.